Time,TemperatureF,DewpointF,PressureIn,WindDirection,WindDirectionDegrees,WindSpeedMPH,WindSpeedGustMPH,Humidity,HourlyPrecipIn,Conditions,Clouds,dailyrainin,SoftwareType,DateUTC
2013-06-20 00:03:00,76.5,66.0,29.90,SSE,160,6.0,-999.0,69,-99.99,,,0.00,weatherlink.com 1.10,2013-06-20 05:03:00,
2013-06-20 00:33:00,76.1,66.0,29.91,SSE,149,2.0,-999.0,70,-99.99,,,0.00,weatherlink.com 1.10,2013-06-20 05:33:00,
2013-06-20 00:48:00,76.0,66.0,29.90,SSE,161,3.0,-999.0,70,-99.99,,,0.00,weatherlink.com 1.10,2013-06-20 05:48:00,
2013-06-20 01:03:00,75.6,66.0,29.90,SSE,162,4.0,-999.0,71,-99.99,,,0.00,weatherlink.com 1.10,2013-06-20 06:03:00,
2013-06-20 01:18:00,75.4,65.0,29.90,SSE,154,0.0,-999.0,71,-99.99,,,0.00,weatherlink.com 1.10,2013-06-20 06:18:00,
2013-06-20 01:33:00,75.1,66.0,29.89,SSE,167,0.0,-999.0,72,-99.99,,,0.00,weatherlink.com 1.10,2013-06-20 06:33:00,
2013-06-20 01:48:00,75.1,66.0,29.89,SE,142,2.0,-999.0,72,-99.99,,,0.00,weatherlink.com 1.10,2013-06-20 06:48:00,
2013-06-20 02:03:00,74.9,65.0,29.90,SE,146,3.0,-999.0,72,-99.99,,,0.00,weatherlink.com 1.10,2013-06-20 07:03:00,
2013-06-20 02:18:00,74.7,66.0,29.89,SE,132,0.0,-999.0,73,-99.99,,,0.00,weatherlink.com 1.10,2013-06-20 07:18:00,
2013-06-20 02:33:00,74.2,65.0,29.89,SE,128,0.0,-999.0,74,-99.99,,,0.00,weatherlink.com 1.10,2013-06-20 07:33:00,
2013-06-20 02:48:00,73.9,65.0,29.88,SE,144,0.0,-999.0,74,-99.99,,,0.00,weatherlink.com 1.10,2013-06-20 07:48:00,
2013-06-20 03:03:00,73.9,66.0,29.89,ESE,119,0.0,-999.0,75,-99.99,,,0.00,weatherlink.com 1.10,2013-06-20 08:03:00,
2013-06-20 03:18:00,73.7,65.0,29.90,SSE,152,0.0,-999.0,75,-99.99,,,0.00,weatherlink.com 1.10,2013-06-20 08:18:00,
2013-06-20 03:33:00,73.7,65.0,29.89,ESE,121,3.0,-999.0,75,-99.99,,,0.00,weatherlink.com 1.10,2013-06-20 08:33:00,
2013-06-20 03:48:00,73.7,65.0,29.89,South,171,0.0,-999.0,75,-99.99,,,0.00,weatherlink.com 1.10,2013-06-20 08:48:00,
2013-06-20 04:03:00,73.5,65.0,29.89,SE,136,0.0,-999.0,75,-99.99,,,0.00,weatherlink.com 1.10,2013-06-20 09:03:00,
2013-06-20 04:18:00,73.3,65.0,29.90,SSE,158,3.0,-999.0,76,-99.99,,,0.00,weatherlink.com 1.10,2013-06-20 09:18:00,
2013-06-20 04:33:00,73.2,65.0,29.89,SE,124,3.0,-999.0,76,-99.99,,,0.00,weatherlink.com 1.10,2013-06-20 09:33:00,
2013-06-20 04:48:00,73.0,65.0,29.89,SSE,153,0.0,-999.0,76,-99.99,,,0.00,weatherlink.com 1.10,2013-06-20 09:48:00,
2013-06-20 05:03:00,72.8,65.0,29.90,SE,134,0.0,-999.0,77,-99.99,,,0.00,weatherlink.com 1.10,2013-06-20 10:03:00,
2013-06-20 05:18:00,73.0,65.0,29.90,SE,124,5.0,-999.0,77,-99.99,,,0.00,weatherlink.com 1.10,2013-06-20 10:18:00,
2013-06-20 05:33:00,73.0,65.0,29.90,SSE,150,3.0,-999.0,77,-99.99,,,0.00,weatherlink.com 1.10,2013-06-20 10:33:00,
2013-06-20 05:48:00,72.8,65.0,29.90,SE,145,2.0,-999.0,77,-99.99,,,0.00,weatherlink.com 1.10,2013-06-20 10:48:00,
2013-06-20 06:03:00,72.7,66.0,29.90,SSE,149,4.0,-999.0,78,-99.99,,,0.00,weatherlink.com 1.10,2013-06-20 11:03:00,
2013-06-20 06:18:00,72.7,66.0,29.90,SE,142,3.0,-999.0,78,-99.99,,,0.00,weatherlink.com 1.10,2013-06-20 11:18:00,
2013-06-20 06:33:00,72.8,66.0,29.91,SSE,165,3.0,-999.0,78,-99.99,,,0.00,weatherlink.com 1.10,2013-06-20 11:33:00,
2013-06-20 06:48:00,73.0,66.0,29.91,SE,144,1.0,-999.0,79,-99.99,,,0.00,weatherlink.com 1.10,2013-06-20 11:48:00,
2013-06-20 07:03:00,73.2,66.0,29.91,SE,134,1.0,-999.0,79,-99.99,,,0.00,weatherlink.com 1.10,2013-06-20 12:03:00,
2013-06-20 07:18:00,73.7,66.0,29.92,South,173,9.0,-999.0,78,-99.99,,,0.00,weatherlink.com 1.10,2013-06-20 12:18:00,
2013-06-20 07:33:00,74.4,67.0,29.92,SSE,164,3.0,-999.0,77,-99.99,,,0.00,weatherlink.com 1.10,2013-06-20 12:33:00,
2013-06-20 07:48:00,75.1,67.0,29.93,SSE,153,1.0,-999.0,76,-99.99,,,0.00,weatherlink.com 1.10,2013-06-20 12:48:00,
2013-06-20 08:03:00,76.0,68.0,29.93,SSE,168,8.0,-999.0,75,-99.99,,,0.00,weatherlink.com 1.10,2013-06-20 13:03:00,
2013-06-20 08:18:00,76.8,68.0,29.93,SSE,159,3.0,-999.0,74,-99.99,,,0.00,weatherlink.com 1.10,2013-06-20 13:18:00,
2013-06-20 08:33:00,77.6,68.0,29.94,SE,130,2.0,-999.0,73,-99.99,,,0.00,weatherlink.com 1.10,2013-06-20 13:33:00,
2013-06-20 08:48:00,78.1,68.0,29.94,SSE,168,0.0,-999.0,72,-99.99,,,0.00,weatherlink.com 1.10,2013-06-20 13:48:00,
2013-06-20 09:03:00,79.0,69.0,29.94,South,172,8.0,-999.0,71,-99.99,,,0.00,weatherlink.com 1.10,2013-06-20 14:03:00,
2013-06-20 09:18:00,79.4,69.0,29.94,SE,126,8.0,-999.0,70,-99.99,,,0.00,weatherlink.com 1.10,2013-06-20 14:18:00,
2013-06-20 09:33:00,80.1,70.0,29.95,SSE,167,3.0,-999.0,70,-99.99,,,0.00,weatherlink.com 1.10,2013-06-20 14:33:00,
2013-06-20 09:48:00,81.4,70.0,29.94,South,181,6.0,-999.0,68,-99.99,,,0.00,weatherlink.com 1.10,2013-06-20 14:48:00,
2013-06-20 10:03:00,81.8,70.0,29.94,SSE,148,9.0,-999.0,67,-99.99,,,0.00,weatherlink.com 1.10,2013-06-20 15:03:00,
2013-06-20 10:18:00,82.2,70.0,29.94,South,169,9.0,-999.0,67,-99.99,,,0.00,weatherlink.com 1.10,2013-06-20 15:18:00,
2013-06-20 10:33:00,83.6,71.0,29.94,South,170,10.0,-999.0,66,-99.99,,,0.00,weatherlink.com 1.10,2013-06-20 15:33:00,
2013-06-20 10:48:00,83.8,71.0,29.94,SSW,199,15.0,-999.0,66,-99.99,,,0.00,weatherlink.com 1.10,2013-06-20 15:48:00,
2013-06-20 11:03:00,84.5,71.0,29.94,South,183,10.0,-999.0,64,-99.99,,,0.00,weatherlink.com 1.10,2013-06-20 16:03:00,
2013-06-20 11:18:00,84.5,71.0,29.94,South,191,12.0,-999.0,65,-99.99,,,0.00,weatherlink.com 1.10,2013-06-20 16:18:00,
2013-06-20 11:33:00,85.7,72.0,29.94,SSW,197,9.0,-999.0,63,-99.99,,,0.00,weatherlink.com 1.10,2013-06-20 16:33:00,
2013-06-20 11:48:00,85.5,72.0,29.94,SSE,159,11.0,-999.0,64,-99.99,,,0.00,weatherlink.com 1.10,2013-06-20 16:48:00,
2013-06-20 12:03:00,86.1,72.0,29.93,SSE,161,5.0,-999.0,63,-99.99,,,0.00,weatherlink.com 1.10,2013-06-20 17:03:00,
2013-06-20 12:18:00,87.0,73.0,29.93,SSE,163,4.0,-999.0,63,-99.99,,,0.00,weatherlink.com 1.10,2013-06-20 17:18:00,
2013-06-20 12:33:00,87.4,73.0,29.93,SE,140,13.0,-999.0,62,-99.99,,,0.00,weatherlink.com 1.10,2013-06-20 17:33:00,
2013-06-20 12:48:00,88.6,73.0,29.92,SE,143,8.0,-999.0,60,-99.99,,,0.00,weatherlink.com 1.10,2013-06-20 17:48:00,
2013-06-20 13:03:00,88.8,73.0,29.92,SSE,147,6.0,-999.0,59,-99.99,,,0.00,weatherlink.com 1.10,2013-06-20 18:03:00,
2013-06-20 13:18:00,89.0,73.0,29.92,South,184,5.0,-999.0,60,-99.99,,,0.00,weatherlink.com 1.10,2013-06-20 18:18:00,
2013-06-20 13:33:00,89.3,73.0,29.91,SSW,193,14.0,-999.0,59,-99.99,,,0.00,weatherlink.com 1.10,2013-06-20 18:33:00,
2013-06-20 13:48:00,89.3,73.0,29.91,South,171,9.0,-999.0,59,-99.99,,,0.00,weatherlink.com 1.10,2013-06-20 18:48:00,
2013-06-20 14:03:00,90.7,74.0,29.90,South,186,10.0,-999.0,58,-99.99,,,0.00,weatherlink.com 1.10,2013-06-20 19:03:00,
2013-06-20 14:18:00,90.3,74.0,29.90,SSE,147,7.0,-999.0,58,-99.99,,,0.00,weatherlink.com 1.10,2013-06-20 19:18:00,
2013-06-20 14:33:00,90.1,73.0,29.90,SSE,167,11.0,-999.0,57,-99.99,,,0.00,weatherlink.com 1.10,2013-06-20 19:33:00,
2013-06-20 14:48:00,90.7,73.0,29.89,SSE,147,11.0,-999.0,56,-99.99,,,0.00,weatherlink.com 1.10,2013-06-20 19:48:00,
2013-06-20 15:03:00,90.7,73.0,29.89,South,185,6.0,-999.0,56,-99.99,,,0.00,weatherlink.com 1.10,2013-06-20 20:03:00,
2013-06-20 15:18:00,91.0,73.0,29.89,South,176,12.0,-999.0,55,-99.99,,,0.00,weatherlink.com 1.10,2013-06-20 20:18:00,
2013-06-20 15:33:00,91.2,73.0,29.88,South,179,11.0,-999.0,56,-99.99,,,0.00,weatherlink.com 1.10,2013-06-20 20:33:00,
2013-06-20 15:48:00,91.6,73.0,29.88,SSE,165,9.0,-999.0,55,-99.99,,,0.00,weatherlink.com 1.10,2013-06-20 20:48:00,
2013-06-20 16:03:00,91.2,72.0,29.88,South,180,12.0,-999.0,54,-99.99,,,0.00,weatherlink.com 1.10,2013-06-20 21:03:00,
2013-06-20 16:18:00,91.2,72.0,29.88,SSE,148,13.0,-999.0,54,-99.99,,,0.00,weatherlink.com 1.10,2013-06-20 21:18:00,
2013-06-20 16:33:00,91.4,72.0,29.87,South,169,2.0,-999.0,54,-99.99,,,0.00,weatherlink.com 1.10,2013-06-20 21:33:00,
2013-06-20 16:48:00,91.4,72.0,29.86,SSE,164,7.0,-999.0,53,-99.99,,,0.00,weatherlink.com 1.10,2013-06-20 21:48:00,
2013-06-20 17:03:00,91.2,72.0,29.86,South,173,5.0,-999.0,54,-99.99,,,0.00,weatherlink.com 1.10,2013-06-20 22:03:00,
2013-06-20 17:18:00,91.4,72.0,29.86,SE,124,6.0,-999.0,53,-99.99,,,0.00,weatherlink.com 1.10,2013-06-20 22:18:00,
2013-06-20 17:33:00,91.0,72.0,29.85,SSW,196,10.0,-999.0,54,-99.99,,,0.00,weatherlink.com 1.10,2013-06-20 22:33:00,
2013-06-20 17:48:00,91.4,72.0,29.84,SSE,148,8.0,-999.0,54,-99.99,,,0.00,weatherlink.com 1.10,2013-06-20 22:48:00,
2013-06-20 18:03:00,91.0,72.0,29.84,SE,126,5.0,-999.0,54,-99.99,,,0.00,weatherlink.com 1.10,2013-06-20 23:03:00,
2013-06-20 18:18:00,90.5,72.0,29.84,SSE,159,10.0,-999.0,54,-99.99,,,0.00,weatherlink.com 1.10,2013-06-20 23:18:00,
2013-06-20 18:33:00,90.3,72.0,29.84,SSE,157,9.0,-999.0,56,-99.99,,,0.00,weatherlink.com 1.10,2013-06-20 23:33:00,
2013-06-20 18:48:00,89.7,71.0,29.85,South,173,18.0,-999.0,55,-99.99,,,0.00,weatherlink.com 1.10,2013-06-20 23:48:00,
2013-06-20 19:03:00,89.3,72.0,29.84,South,180,2.0,-999.0,56,-99.99,,,0.00,weatherlink.com 1.10,2013-06-21 00:03:00,
2013-06-20 19:18:00,89.0,71.0,29.85,SSE,159,4.0,-999.0,56,-99.99,,,0.00,weatherlink.com 1.10,2013-06-21 00:18:00,
2013-06-20 19:33:00,88.4,71.0,29.85,SSE,161,7.0,-999.0,57,-99.99,,,0.00,weatherlink.com 1.10,2013-06-21 00:33:00,
2013-06-20 19:48:00,88.0,72.0,29.85,SSE,165,2.0,-999.0,59,-99.99,,,0.00,weatherlink.com 1.10,2013-06-21 00:48:00,
2013-06-20 20:03:00,87.4,72.0,29.85,South,188,6.0,-999.0,60,-99.99,,,0.00,weatherlink.com 1.10,2013-06-21 01:03:00,
2013-06-20 20:18:00,86.7,71.0,29.86,SSE,150,10.0,-999.0,60,-99.99,,,0.00,weatherlink.com 1.10,2013-06-21 01:18:00,
2013-06-20 20:34:00,86.5,71.0,29.86,ESE,113,7.0,-999.0,60,-99.99,,,0.00,weatherlink.com 1.10,2013-06-21 01:34:00,
2013-06-20 20:48:00,85.7,71.0,29.86,South,178,10.0,-999.0,62,-99.99,,,0.00,weatherlink.com 1.10,2013-06-21 01:48:00,
2013-06-20 21:03:00,85.1,71.0,29.86,South,182,7.0,-999.0,63,-99.99,,,0.00,weatherlink.com 1.10,2013-06-21 02:03:00,
2013-06-20 21:18:00,84.7,71.0,29.86,South,177,6.0,-999.0,63,-99.99,,,0.00,weatherlink.com 1.10,2013-06-21 02:18:00,
2013-06-20 21:33:00,84.3,71.0,29.88,South,174,1.0,-999.0,64,-99.99,,,0.00,weatherlink.com 1.10,2013-06-21 02:33:00,
2013-06-20 21:49:00,83.8,71.0,29.88,SE,145,3.0,-999.0,65,-99.99,,,0.00,weatherlink.com 1.10,2013-06-21 02:49:00,
2013-06-20 22:04:00,83.4,71.0,29.89,South,175,2.0,-999.0,67,-99.99,,,0.00,weatherlink.com 1.10,2013-06-21 03:04:00,
2013-06-20 22:18:00,82.8,71.0,29.89,South,178,4.0,-999.0,68,-99.99,,,0.00,weatherlink.com 1.10,2013-06-21 03:18:00,
2013-06-20 22:34:00,82.4,72.0,29.90,South,179,3.0,-999.0,70,-99.99,,,0.00,weatherlink.com 1.10,2013-06-21 03:34:00,
2013-06-20 22:49:00,82.2,72.0,29.91,South,169,5.0,-999.0,70,-99.99,,,0.00,weatherlink.com 1.10,2013-06-21 03:49:00,
2013-06-20 23:04:00,81.6,72.0,29.91,SSE,164,0.0,-999.0,72,-99.99,,,0.00,weatherlink.com 1.10,2013-06-21 04:04:00,
2013-06-20 23:19:00,81.4,72.0,29.91,SE,137,0.0,-999.0,73,-99.99,,,0.00,weatherlink.com 1.10,2013-06-21 04:19:00,
2013-06-20 23:34:00,81.4,72.0,29.91,SSE,148,5.0,-999.0,72,-99.99,,,0.00,weatherlink.com 1.10,2013-06-21 04:34:00,
2013-06-20 23:49:00,81.1,72.0,29.91,South,180,0.0,-999.0,73,-99.99,,,0.00,weatherlink.com 1.10,2013-06-21 04:49:00,